THOR ABLESTAR DEB, 243

Orbit data source: Space-Track

THOR ABLESTAR DEB, 243 is space debris in LEO originally from a launch on Thu, 29 Jun 1961 UTC launched from the Air Force Eastern Test Range (AFETR). Debris objects in space refer to the collection of defunct objects orbiting the Earth. Examples of debris include non-operational satellites, rocket bodies, and fragments generated from explosions, collisions, or faulty payload assembly.

Loading next visibility...
Identifier
243, 1961-015BY
Orbit
LEO
Country
Flag of USUS
Related business
Manufacturer
Unknown
Mission
Spacecraft
Bus & Motor
Unknown
Mass
Unknown
Launch date (UTC)
1961-06-29 (65 years ago)
Launch vehicle
Unknown
Launch site
Air Force Eastern Test Range (AFETR)
Object type
Payload
Rocket body
Debris
Shape & HBR
Unknown shape, 0.1 m
Radar Cross Section
Medium (>0.1 m² and <1 m²)

Expand to show TLE details & history
Last TLE update: 8 hours ago

TLE from 8 hours ago
0 THOR ABLESTAR DEB
1   243U 61015BY  26150.12121314  .00000924  00000-0  65880-3 0  9996
2   243  66.4634  49.3887 0018479 104.5760 255.7372 14.01914703280765
Epoch: 2026-05-30T02:54Z
TLE epoch observation values (Epoch: 2026-05-30T02:54:32.815Z)
Latitude
-0.00007°
Longitude
118.11015°
Altitude
892.565 km
Speed
7.405 km/s
True Right ascension
03h 17m 33s
True Declination
0° 00' 00"
Sunlit
Object was in daylight at epoch
Visualization orbit readout
Latitude
Unknown
Longitude
Unknown
Altitude
Unknown
Speed
Unknown
Apparent Right ascension
Unknown
Apparent Declination
Unknown
Sunlit
N/A
Visualization observer readout
Local Sidereal Time
20:45:49
Azimuth
Unknown
Elevation
Unknown
Doppler factor
Unknown
Orbital elements
Apogee altitude
899.019 km
Perigee altitude
872.174 km
Semi-major axis
7,263.733 km
Eccentricity
0.00185
Inclination
66.4634°
RAAN
49.3887°
Arg. of periapsis
104.576°
True anomaly
255.53209°
Mean anomaly
255.7372°
Eccentric anomaly
255.63463°
Mean motion
3.50593 °/min
Orbital period
102.68 mins
BSTAR
0.0006588
Loading maneuver chart data...
Computing Atmospheric mass density...
Loading historical data...
Loading historical data...
Loading historical data...
Loading historical data...
Loading historical data...
Loading historical data...
Loading historical data...

Documentation

Showing up to 5 results
|